TITAN 3C TRANSTAGE DEB, 5992

Orbit data source: Space-Track

TITAN 3C TRANSTAGE DEB, 5992 is space debris in HEO originally from a launch on Tue, 21 Dec 1965 UTC launched from the Air Force Eastern Test Range (AFETR). Debris objects in space refer to the collection of defunct objects orbiting the Earth. Examples of debris include non-operational satellites, rocket bodies, and fragments generated from explosions, collisions, or faulty payload assembly.

Loading next visibility...
Identifier
5992, 1965-108S
Orbit
HEO
Country
Flag of USUS
Related business
Manufacturer
Unknown
Mission
Spacecraft
Bus & Motor
Unknown
Mass
Unknown
Launch date (UTC)
1965-12-21 (61 years ago)
Launch vehicle
Unknown
Launch site
Air Force Eastern Test Range (AFETR)
Object type
Payload
Rocket body
Debris
Shape & HBR
Unknown shape, 0.1 m
Radar Cross Section
Medium (>0.1 m² and <1 m²)

Expand to show TLE details & history
Last TLE update: 2 weeks ago

TLE from 2 weeks ago
0 TITAN 3C TRANSTAGE DEB
1 05992U 65108S   26240.67264571  .00000236  00000-0  21346-1 0  9995
2 05992  27.2464  52.2631 6636281 197.3780 119.4819  2.66177767 18841
Epoch: 2026-08-28T16:08Z
TLE epoch observation values (Epoch: 2026-08-28T16:08:36.589Z)
Latitude
-0.0001°
Longitude
-166.78978°
Altitude
27,178.241 km
Speed
2.374 km/s
True Right ascension
03h 29m 01s
True Declination
0° 00' 00"
Sunlit
Object was in daylight at epoch
Visualization orbit readout
Latitude
Unknown
Longitude
Unknown
Altitude
Unknown
Speed
Unknown
Apparent Right ascension
Unknown
Apparent Declination
Unknown
Sunlit
N/A
Visualization observer readout
Local Sidereal Time
19:00:38
Azimuth
Unknown
Elevation
Unknown
Doppler factor
Unknown
Orbital elements
Apogee altitude
30,215.755 km
Perigee altitude
1,020.847 km
Semi-major axis
21,996.438 km
Eccentricity
0.66363
Inclination
27.2464°
RAAN
52.2631°
Arg. of periapsis
197.378°
True anomaly
162.68429°
Mean anomaly
119.4819°
Eccentric anomaly
142.58442°
Mean motion
0.6653 °/min
Orbital period
541.11 mins
BSTAR
0.021346
Loading maneuver chart data...
Computing Atmospheric mass density...

Documentation

Showing up to 5 results
|